Winston-Salem, NC

10:03 PM EST on February 26, 2017 (GMT -0500)
Smith Reynolds

Weather History for KINT - March, 2013

Change the Weather History Date:

Wednesday, March 20, 2013

  Actual Average Record
Temperature  
Mean Temperature 46 °F -  
Max Temperature 54 °F 58 °F 82 °F (2012)
Min Temperature 37 °F 39 °F 22 °F (1967)
Degree Days  
Heating Degree Days 20    
Moisture  
Dew Point 9 °F    
Average Humidity 22    
Maximum Humidity 33    
Minimum Humidity 16    
Precipitation  
Precipitation 0.00 in - - ()
Sea Level Pressure  
Sea Level Pressure 29.97 in    
Wind  
Wind Speed 5 mph (WNW)    
Max Wind Speed 9 mph    
Max Gust Speed 17 mph    
Visibility 10 miles    
Events      
Averages and records for this station are not official NWS values.
T = Trace of Precipitation, MM = Missing Value Source: NWS Daily Summary

Daily Weather History Graph

Daily Weather History Graph

Search for Another Location

Airport or City:

Trip Planner

Search our weather history database for the weather conditions in past years. The results will help you decide how hot, cold, wet, or windy it might be!

Date:

Astronomy

Mar. 20, 2013 Rise Set
Actual Time 7:24 AM EDT 7:32 PM EDT
Civil Twilight 6:58 AM EDT 7:58 PM EDT
Nautical Twilight 6:28 AM EDT 8:28 PM EDT
Astronomical Twilight 5:58 AM EDT 8:58 PM EDT
Moon 1:16 PM EDT (3/20) 2:52 AM EDT (3/20)
Length of Visible Light 12h 59m
Length of Day
12h 08m
First Quarter, 59% of the Moon is Illuminated
Mar 20
First Quarter
Mar 27
Full
Apr 3
Last Quarter
Apr 10
New
Apr 18
First Quarter

Hourly Weather History & Observations

Time (EDT) Temp. Windchill Dew Point Humidity Pressure Visibility Wind Dir Wind Speed Gust Speed Precip Events Conditions
12:54 AM 45.0 °F 41.8 °F 6.1 °F 20% 30.05 in 10.0 mi NNW 5.8 mph - N/A   Clear
1:54 AM 44.1 °F 42.5 °F 8.1 °F 23% 30.05 in 10.0 mi NNW 3.5 mph - N/A   Clear
2:54 AM 44.1 °F 40.1 °F 3.9 °F 19% 30.05 in 10.0 mi NW 6.9 mph - N/A   Clear
3:54 AM 42.1 °F - 5.0 °F 22% 30.04 in 10.0 mi Calm Calm - N/A   Clear
4:54 AM 39.9 °F 37.8 °F 8.1 °F 27% 30.03 in 10.0 mi NW 3.5 mph - N/A   Clear
5:54 AM 39.0 °F 35.7 °F 7.0 °F 27% 30.04 in 10.0 mi NW 4.6 mph - N/A   Clear
6:54 AM 39.0 °F 33.4 °F 8.1 °F 28% 30.05 in 10.0 mi NW 8.1 mph - N/A   Clear
7:54 AM 37.9 °F 35.5 °F 10.9 °F 33% 30.07 in 10.0 mi NNW 3.5 mph - N/A   Clear
8:54 AM 39.9 °F 35.8 °F 9.0 °F 28% 30.10 in 10.0 mi WNW 5.8 mph - N/A   Clear
9:54 AM 42.1 °F 37.7 °F 8.1 °F 25% 30.11 in 10.0 mi WNW 6.9 mph - N/A   Clear
10:54 AM 45.0 °F 43.5 °F 8.1 °F 22% 30.10 in 10.0 mi NNW 3.5 mph - N/A   Clear
11:54 AM 46.0 °F 42.5 °F 8.1 °F 21% 30.08 in 10.0 mi NW 6.9 mph - N/A   Clear
12:54 PM 48.9 °F - 9.0 °F 20% 30.05 in 10.0 mi SW 9.2 mph - N/A   Clear
1:54 PM 50.0 °F - 9.0 °F 19% 30.00 in 10.0 mi West 6.9 mph 16.1 mph N/A   Clear
2:54 PM 51.1 °F - 8.1 °F 18% 29.95 in 10.0 mi Variable 3.5 mph - N/A   Clear
3:54 PM 53.1 °F - 8.1 °F 16% 29.89 in 10.0 mi Variable 6.9 mph 17.3 mph N/A   Clear
4:54 PM 54.0 °F - 8.1 °F 16% 29.85 in 10.0 mi Variable 3.5 mph 17.3 mph N/A   Clear
5:54 PM 53.1 °F - 9.0 °F 17% 29.83 in 10.0 mi SSW 9.2 mph 16.1 mph N/A   Mostly Cloudy
6:54 PM 52.0 °F - 9.0 °F 18% 29.82 in 10.0 mi SSW 5.8 mph - N/A   Scattered Clouds
7:54 PM 52.0 °F - 9.0 °F 18% 29.82 in 10.0 mi Variable 6.9 mph - N/A   Mostly Cloudy
8:54 PM 51.1 °F - 10.9 °F 20% 29.82 in 10.0 mi WSW 3.5 mph - N/A   Overcast
9:54 PM 50.0 °F - 16.0 °F 26% 29.82 in 10.0 mi SSW 5.8 mph - N/A   Overcast
10:54 PM 48.0 °F - 16.0 °F 28% 29.81 in 10.0 mi Calm Calm - N/A   Overcast
11:54 PM 48.0 °F - 16.0 °F 28% 29.78 in 10.0 mi Calm Calm - N/A   Mostly Cloudy